Estación de San Rafael

Ultimos registro cada 15 minutos 28
Estación Fecha / Hora Temperatura Humedad Lluvia Velocidad Dirección Radiación Presion
28 San Rafael 02-09-2026 06:45 10,8 89,8 0 0 159 0,6 1000,2
27 San Rafael 02-09-2026 06:30 10,9 91,5 0 0 191 0,6 1000
26 San Rafael 02-09-2026 06:15 10,4 92,6 0 0 191 0,6 1000
25 San Rafael 02-09-2026 06:00 10,4 92,7 0 0 191 0,6 999,7
24 San Rafael 02-09-2026 05:45 10,4 93,6 0 0 191 0,6 999,5
23 San Rafael 02-09-2026 05:30 10,1 93,4 0 0 191 0,6 999
22 San Rafael 02-09-2026 05:15 10,3 92,9 0 0 191 0,6 998,8
21 San Rafael 02-09-2026 05:00 10,5 92,2 0 0 191 0,6 999
20 San Rafael 02-09-2026 04:45 10,7 91,4 0 0 191 0,6 998,7
19 San Rafael 02-09-2026 04:30 10,9 90,5 0 0 191 0,6 999
18 San Rafael 02-09-2026 04:15 11,1 89,1 0 0 191 0,6 999,3
17 San Rafael 02-09-2026 04:00 11,2 87,2 0 0 191 0,6 999
16 San Rafael 02-09-2026 03:45 11,4 84 0 0 191 0,6 998,9
15 San Rafael 02-09-2026 03:30 11,6 83,1 0 0 192 0,6 999,1
14 San Rafael 02-09-2026 03:15 11,8 83,1 0 0 201 0,6 999,2
13 San Rafael 02-09-2026 03:00 12 83 0 0 202 0,6 999,4
12 San Rafael 02-09-2026 02:45 12,1 83,1 0 0 201 0,6 999,6
11 San Rafael 02-09-2026 02:30 12 82,8 0 0 194 0,6 999,8
10 San Rafael 02-09-2026 02:15 12 82,3 0 0 194 0,6 999,7
9 San Rafael 02-09-2026 02:00 12,1 83,5 0 0 187 0,6 999,8
8 San Rafael 02-09-2026 01:45 11,6 86 0 0 185 0,6 999,7
7 San Rafael 02-09-2026 01:30 11,7 84,2 0 0 185 0,6 999,9
6 San Rafael 02-09-2026 01:15 12 83,2 0 0 185 0,6 999,8
5 San Rafael 02-09-2026 01:00 12,5 81,4 0 0 185 0,6 1000,1
4 San Rafael 02-09-2026 00:45 12,5 81,4 0 0 185 0,6 999,9
3 San Rafael 02-09-2026 00:30 13,2 78,8 0 0 187 0,6 999,8
2 San Rafael 02-09-2026 00:15 13,5 80,5 0 0 188 0,6 1000,2
1 San Rafael 02-09-2026 00:00 13,7 79 0 0 188 0,6 1000,2